#timestamp,LO_Frequency,Hit,StdDev 
1571572815.5,286047002.0,P
1571572835.3,286047003.5,N
1571572855.2,286047007.1,N
1571572875.9,286047004.2,N
1571572895.7,286047000.5,N
1571572915.6,286047001.0,N
1571572935.4,286047002.6,N
1571572955.2,286047002.5,N
1571572975.1,286047001.6,N
1571572976.0,286047001.6,N
1571572995.8,286047004.8,N
1571573015.7,286047006.3,N
1571573035.5,286047006.3,N
1571573055.3,286047008.4,Y
1571573075.2,286047006.9,P
1571573095.0,286047009.2,P
1571573095.9,286047009.2,P
1571573115.8,286047008.5,Y
1571573135.6,286047000.2,P
1571573155.4,286047002.3,N
1571573175.3,286047004.0,N
1571573195.1,286047004.2,N
1571573215.8,286047002.2,N
1571573235.7,286047000.6,N
1571573255.5,286046998.5,N
1571573275.4,286046997.5,N
1571573295.2,286046994.8,N
1571573315.0,286046994.8,N
1571573315.9,286046994.8,N
1571573335.8,286046993.0,N
1571573355.6,286046993.7,N
1571573375.4,286046992.4,N
1571573395.3,286046991.0,N
1571573415.1,286046991.5,N
1571573435.9,286046990.1,N
1571573485.7,286046993.9,E
1571573495.6,286046997.9,N
1571573515.5,286047000.1,P
1571573535.3,286047002.7,N
1571573555.2,286046999.8,N
1571573575.9,286047001.6,N
1571573595.7,286047001.8,N
1571573615.6,286047002.2,N
1571573635.4,286047002.7,N
1571573655.2,286047000.1,N
1571573675.1,286047002.0,N
1571573676.0,286047002.0,N
1571573695.8,286047003.9,N
1571573715.7,286047005.0,Y
1571573735.5,286047004.7,P
1571573755.3,286047004.8,N
1571573775.2,286047003.7,N
1571573795.0,286047003.5,N
1571573795.9,286047003.5,N
1571573815.8,286047005.3,Y
1571573835.6,286047001.6,P
1571573855.4,286047001.4,N
1571573875.3,286047004.0,P
1571573895.1,286047002.2,N
1571573915.8,286047002.0,N
1571573935.7,286047002.1,N
1571573955.5,286047002.5,N
1571573975.4,286047002.7,Y
1571573995.2,286046997.5,P
1571574015.0,286046995.1,N
1571574015.9,286046995.1,N
1571574035.8,286046993.4,N
1571574055.6,286046994.7,N
1571574075.4,286046990.3,Y
1571574095.3,286046995.2,P
1571574115.1,286046995.0,P
1571574135.9,286046999.6,N
1571574155.7,286047000.9,N
1571574175.5,286047002.0,N
1571574195.4,286047004.2,N
1571574215.2,286047005.8,N
1571574235.0,286047003.7,N
1571574236.0,286047003.7,N
1571574255.8,286047000.0,N
1571574275.6,286047001.1,N
1571574295.5,286046997.8,N
1571574315.3,286046992.4,N
1571574335.1,286046993.7,N
1571574355.9,286046998.0,N
1571574375.7,286046998.4,N
1571574395.5,286047001.6,N
1571574415.4,286047003.5,N
1571574435.2,286047003.7,N
1571574455.1,286047003.8,N
1571574456.0,286047003.8,N
1571574475.8,286047003.5,N
1571574495.6,286046999.9,N
1571574515.5,286047000.8,N
1571574535.3,286047002.7,N
1571574555.1,286047005.2,N
1571574575.9,286047006.6,N
1571574595.7,286047008.9,N
1571574615.6,286047008.4,N
1571574635.4,286047006.1,N
1571574655.2,286047004.5,N
1571574675.1,286047011.9,Y
1571574676.0,286047004.7,P
1571574695.8,286047002.6,N
1571574715.7,286047002.4,N
1571574735.5,286047002.2,N
1571574755.3,286047005.4,Y
1571574775.2,286047002.5,P
1571574795.0,286047004.4,P
1571574795.9,286047004.4,P
1571574815.8,286047003.5,Y
1571574835.6,286047000.2,P
1571574855.4,286047002.2,N
1571574875.3,286047004.2,P
1571574895.1,286047002.6,N
1571574915.8,286046999.9,N
1571574935.7,286047000.0,N
1571574955.5,286047002.8,N
1571574975.4,286046998.3,N
1571574995.2,286046998.4,N
1571575015.0,286047000.6,N
1571575015.9,286047000.6,N
1571575035.8,286047002.6,N
1571575055.6,286047003.3,N
1571575075.4,286047007.4,Y
1571575095.3,286047007.5,P
1571575115.1,286047011.9,P
1571575135.9,286047009.1,N
1571575155.7,286047008.0,N
1571575175.5,286047005.3,N
1571575195.4,286047005.1,N
1571575215.2,286047007.6,N
1571575235.0,286047010.6,Y
1571575236.0,286047010.6,P
1571575255.8,286047005.9,P
1571575275.6,286047006.6,P
1571575295.5,286047008.1,Y
1571575315.3,286047002.4,P
1571575335.1,286046996.8,N
1571575355.9,286046997.8,N
1571575375.7,286046995.2,N
1571575395.5,286046996.4,N
1571575415.4,286046995.8,N
1571575435.2,286046994.2,N
1571575455.1,286046993.7,N
1571575456.0,286046993.7,N
1571575475.8,286046993.3,N
1571575495.6,286046992.4,N
1571575515.5,286046990.2,N
1571575535.3,286046988.9,N
1571575555.1,286046990.0,N
1571575575.9,286046990.0,N
1571575595.7,286046989.7,N
1571575615.6,286046989.6,N
1571575635.4,286046989.7,N
1571575655.2,286046990.7,N
1571575675.1,286046993.0,N
1571575676.0,286046993.0,N
1571575695.8,286046992.8,N
1571575715.6,286046991.3,N
1571575735.5,286046987.4,N
1571575755.3,286046989.0,N
1571575775.2,286046989.6,N
1571575795.9,286046987.4,N
1571575815.7,286046987.7,N
1571575835.6,286046987.0,N
1571575855.4,286046989.1,N
1571575875.2,286046987.0,Y
1571575895.1,286046999.2,P
1571575896.0,286046999.2,N
1571575915.8,286046995.0,N
1571575935.7,286046995.4,N
1571575955.5,286046996.1,N
1571575975.3,286047002.4,N
1571575995.2,286047000.8,N
1571576015.0,286046994.1,N
1571576015.9,286046994.1,N
1571576035.7,286046989.1,Y
1571576055.6,286046990.5,P
1571576075.4,286046992.2,N
1571576095.3,286046997.4,N
1571576115.1,286046997.4,N
1571576116.0,286046997.4,N
1571576135.8,286046998.0,N
1571576155.7,286046995.0,N
1571576175.5,286046997.3,N
1571576195.3,286046997.1,N
1571576215.2,286046999.1,N
1571576235.0,286046996.6,N
1571576235.9,286046996.6,N
1571576255.8,286046996.8,N
1571576275.6,286046998.4,N
1571576295.4,286047001.0,N
1571576315.3,286047000.5,N
1571576335.1,286047002.8,N
1571576355.8,286047005.5,N
1571576375.7,286047003.9,N
1571576395.5,286047004.3,N
